Overview Statistics Trail Chart Weather Telemetry Raw packets
 

This is the latest recevied weather packets stored in our database for station/object N2ZVN. If no packets are shown the sender has not sent any weather packets the latest 10 day(s).

<< 20 21 22 23 24 25 26 >>
Time Temp. Humidity Pressure Rain* Wind** Luminosity Snow
1788569215 20° C 89% 1014.9 hPa 0 mm - 0 W/m² -
1788568910 20° C 89% 1014.7 hPa 0 mm - 0 W/m² -
1788568606 20° C 86% 1014.6 hPa 0 mm - 0 W/m² -
1788568301 20° C 84% 1014.7 hPa 0 mm - 0 W/m² -
1788567996 20° C 89% 1014.6 hPa 0 mm - 0 W/m² -
1788567691 20° C 89% 1014.7 hPa 0 mm - 0 W/m² -
1788567386 20° C 87% 1014.5 hPa 0 mm - 0 W/m² -
1788567085 20.56° C 89% 1014.6 hPa 0 mm - 0 W/m² -
1788566781 20.56° C 88% 1014.7 hPa 0 mm - 0 W/m² -
1788566477 20.56° C 86% 1014.6 hPa 0 mm - 0 W/m² -
1788566177 21.11° C 85% 1014.6 hPa 0 mm - 0 W/m² -
1788565876 21.11° C 86% 1014.5 hPa 0 mm - 0 W/m² -
1788565571 21.11° C 83% 1014.6 hPa 0 mm - 1 W/m² -
1788565267 21.11° C 80% 1014.5 hPa 0 mm - 1 W/m² -
1788564962 21.67° C 82% 1014.5 hPa 0 mm - 2 W/m² -
1788564658 21.67° C 80% 1014.7 hPa 0 mm - 3 W/m² -
1788564354 21.67° C 83% 1014.3 hPa 0 mm - 4 W/m² -
1788564051 21.67° C 81% 1014.4 hPa 0 mm - 6 W/m² -
1788563746 22.22° C 79% 1014.2 hPa 0 mm - 9 W/m² -
1788563441 22.22° C 78% 1014.3 hPa 0 mm - 8 W/m² -
1788563140 22.22° C 79% 1014.2 hPa 0 mm - 11 W/m² -
1788562836 22.22° C 79% 1014.1 hPa 0 mm - 16 W/m² -
1788562533 22.78° C 78% 1013.9 hPa 0 mm - 18 W/m² -
1788562233 22.78° C 76% 1013.9 hPa 0 mm - 20 W/m² -
1788561928 22.78° C 77% 1014 hPa 0 mm - 22 W/m² -

* Rain latest hour (hover to see other rain measurements)
** Current wind speed in m/s (hover to see current wind gust speed)